When you browse on this site, cookies collect data to enhance your experience and personalize the content and advertising you see.
Visit our Privacy Policy to learn more. By continuing to use the site, you agree to this use of cookies and data.
  • In Czech Republic
  • List of Countries
  • For 7 days
  • Water Temperature
  • Weather Map
  • Weather Widgets
  • user-avatar
    Login

    Hourly Weather Barra

    Today, 5 April, Sunday

    Time Temperature Precipitation Wind Pressure Humidity
    00:00 +24°C° 0 mm 2 mps 747 mmHg 91%
    01:00 +24°C° 0 mm 2 mps 746 mmHg 92%
    02:00 +24°C° 0 mm 1 mps 746 mmHg 92%
    03:00 +23°C° 0 mm 1 mps 746 mmHg 92%
    04:00 +21°C° 0 mm 0 mps 746 mmHg 92%
    05:00 +23°C° 0 mm 1 mps 746 mmHg 91%
    06:00 +24°C° 0 mm 1 mps 747 mmHg 91%
    07:00 +24°C° 0 mm 1 mps 747 mmHg 90%
    08:00 +26°C° 0 mm 1 mps 747 mmHg 81%
    09:00 +28°C° 0 mm 1 mps 748 mmHg 72%
    10:00 +29°C° 0 mm 0 mps 748 mmHg 63%
    11:00 +31°C° 0 mm 1 mps 747 mmHg 61%
    12:00 +32°C° 0 mm 1 mps 747 mmHg 60%
    13:00 +32°C° 0 mm 2 mps 746 mmHg 59%
    14:00 +31°C° 0.1 mm 2 mps 746 mmHg 63%
    15:00 +30°C° 0.1 mm 2 mps 746 mmHg 67%
    16:00 +30°C° 0 mm 3 mps 746 mmHg 69%
    17:00 +28°C° 0.2 mm 2 mps 746 mmHg 75%
    18:00 +27°C° 0.2 mm 2 mps 747 mmHg 81%
    19:00 +26°C° 0.2 mm 1 mps 747 mmHg 87%
    20:00 +25°C° 0 mm 1 mps 748 mmHg 88%
    21:00 +25°C° 0 mm 1 mps 748 mmHg 89%
    22:00 +23°C° 0 mm 0 mps 748 mmHg 91%
    23:00 +22°C° 0 mm 0 mps 748 mmHg 91%

    Tomorrow, 6 April, Monday

    Time Temperature Precipitation Wind Pressure Humidity
    00:00 +24°C° 0 mm 1 mps 748 mmHg 92%
    01:00 +24°C° 0 mm 1 mps 747 mmHg 92%
    02:00 +24°C° 0 mm 1 mps 747 mmHg 93%
    03:00 +24°C° 0 mm 1 mps 747 mmHg 93%
    04:00 +24°C° 0 mm 1 mps 747 mmHg 93%
    05:00 +24°C° 0.2 mm 1 mps 748 mmHg 93%
    06:00 +24°C° 0.2 mm 1 mps 748 mmHg 92%
    07:00 +24°C° 0.2 mm 1 mps 748 mmHg 92%
    08:00 +26°C° 0.1 mm 1 mps 749 mmHg 84%
    09:00 +28°C° 0.1 mm 1 mps 749 mmHg 75%
    10:00 +30°C° 0.1 mm 2 mps 749 mmHg 67%
    11:00 +30°C° 0.2 mm 2 mps 749 mmHg 67%
    12:00 +30°C° 0.2 mm 2 mps 748 mmHg 67%
    13:00 +30°C° 0.2 mm 3 mps 747 mmHg 67%
    14:00 +30°C° 0.1 mm 3 mps 747 mmHg 69%
    15:00 +29°C° 0.1 mm 3 mps 746 mmHg 71%
    16:00 +29°C° 0.1 mm 3 mps 746 mmHg 73%
    17:00 +28°C° 0.1 mm 3 mps 746 mmHg 79%
    18:00 +26°C° 0.1 mm 3 mps 747 mmHg 84%
    19:00 +25°C° 0.1 mm 2 mps 747 mmHg 89%
    20:00 +25°C° 0 mm 2 mps 748 mmHg 90%
    21:00 +24°C° 0 mm 2 mps 748 mmHg 91%
    22:00 +24°C° 0 mm 1 mps 748 mmHg 92%
    23:00 +24°C° 0.3 mm 1 mps 748 mmHg 92%

    Day after tomorrow, 7 April, Tuesday

    Time Temperature Precipitation Wind Pressure Humidity
    00:00 +24°C° 0.3 mm 2 mps 748 mmHg 92%
    01:00 +24°C° 0.3 mm 2 mps 748 mmHg 92%
    02:00 +24°C° 0.9 mm 2 mps 747 mmHg 93%
    03:00 +24°C° 0.9 mm 2 mps 747 mmHg 93%
    04:00 +24°C° 0.9 mm 3 mps 747 mmHg 93%
    05:00 +24°C° 0.6 mm 3 mps 747 mmHg 93%
    06:00 +24°C° 0.6 mm 3 mps 748 mmHg 92%
    07:00 +24°C° 0.6 mm 3 mps 748 mmHg 92%
    08:00 +25°C° 0.5 mm 3 mps 749 mmHg 91%
    09:00 +25°C° 0.5 mm 3 mps 749 mmHg 89%
    10:00 +26°C° 0.5 mm 4 mps 749 mmHg 88%
    11:00 +26°C° 0.3 mm 4 mps 748 mmHg 85%
    12:00 +27°C° 0.3 mm 4 mps 748 mmHg 82%
    13:00 +28°C° 0.3 mm 4 mps 747 mmHg 79%
    14:00 +28°C° 0.1 mm 4 mps 747 mmHg 76%
    15:00 +28°C° 0.1 mm 4 mps 747 mmHg 73%
    16:00 +28°C° 0.1 mm 4 mps 746 mmHg 69%
    17:00 +27°C° 0 mm 3 mps 747 mmHg 75%
    18:00 +25°C° 0 mm 3 mps 747 mmHg 80%
    19:00 +24°C° 0 mm 2 mps 748 mmHg 85%
    20:00 +24°C° 0.1 mm 2 mps 748 mmHg 86%
    21:00 +24°C° 0.1 mm 2 mps 748 mmHg 87%
    22:00 +23°C° 0.1 mm 2 mps 749 mmHg 88%
    23:00 +23°C° 0.2 mm 2 mps 748 mmHg 89%

    8 April, Wednesday

    Time Temperature Precipitation Wind Pressure Humidity
    00:00 +23°C° 0.2 mm 2 mps 748 mmHg 90%
    01:00 +23°C° 0.2 mm 2 mps 748 mmHg 91%
    02:00 +22°C° 0.3 mm 3 mps 748 mmHg 91%
    03:00 +22°C° 0.3 mm 3 mps 748 mmHg 91%
    04:00 +22°C° 0.3 mm 3 mps 748 mmHg 91%
    05:00 +22°C° 0.1 mm 3 mps 748 mmHg 91%
    06:00 +22°C° 0.1 mm 3 mps 748 mmHg 91%
    07:00 +22°C° 0.1 mm 3 mps 749 mmHg 91%
    08:00 +25°C° 0 mm 3 mps 749 mmHg 83%
    09:00 +26°C° 0 mm 3 mps 749 mmHg 75%
    10:00 +28°C° 0 mm 4 mps 749 mmHg 68%
    11:00 +28°C° 0 mm 4 mps 749 mmHg 65%
    12:00 +29°C° 0 mm 4 mps 748 mmHg 63%
    13:00 +29°C° 0 mm 4 mps 747 mmHg 60%
    14:00 +29°C° 0 mm 4 mps 747 mmHg 62%
    15:00 +29°C° 0 mm 4 mps 747 mmHg 63%
    16:00 +28°C° 0 mm 4 mps 747 mmHg 65%
    17:00 +27°C° 0 mm 3 mps 747 mmHg 73%
    18:00 +25°C° 0 mm 3 mps 748 mmHg 81%
    19:00 +24°C° 0 mm 3 mps 749 mmHg 90%
    20:00 +23°C° 0.2 mm 2 mps 749 mmHg 91%
    21:00 +23°C° 0.2 mm 2 mps 749 mmHg 92%
    22:00 +23°C° 0.2 mm 2 mps 750 mmHg 93%
    23:00 +23°C° 0.5 mm 2 mps 750 mmHg 93%

    9 April, Thursday

    Time Temperature Precipitation Wind Pressure Humidity
    00:00 +23°C° 0.5 mm 2 mps 749 mmHg 93%
    01:00 +22°C° 0.5 mm 3 mps 749 mmHg 94%
    02:00 +22°C° 0.8 mm 3 mps 749 mmHg 94%
    03:00 +22°C° 0.8 mm 3 mps 749 mmHg 93%
    04:00 +22°C° 0.8 mm 3 mps 749 mmHg 93%
    05:00 +22°C° 0.8 mm 3 mps 749 mmHg 93%
    06:00 +23°C° 0.8 mm 4 mps 750 mmHg 93%
    07:00 +23°C° 0.8 mm 4 mps 750 mmHg 94%
    08:00 +23°C° 1.3 mm 5 mps 750 mmHg 93%
    09:00 +25°C° 1.3 mm 5 mps 750 mmHg 92%
    10:00 +26°C° 1.3 mm 5 mps 751 mmHg 91%
    11:00 +26°C° 1 mm 5 mps 750 mmHg 91%
    12:00 +26°C° 1 mm 5 mps 750 mmHg 90%
    13:00 +26°C° 1 mm 5 mps 749 mmHg 90%
    14:00 +26°C° 0.8 mm 5 mps 749 mmHg 90%
    15:00 +26°C° 0.8 mm 5 mps 749 mmHg 90%
    16:00 +26°C° 0.8 mm 5 mps 749 mmHg 90%
    17:00 +26°C° 1.1 mm 5 mps 749 mmHg 91%
    18:00 +25°C° 1.1 mm 5 mps 750 mmHg 92%
    19:00 +23°C° 1.1 mm 5 mps 750 mmHg 93%
    20:00 +23°C° 1.7 mm 5 mps 751 mmHg 93%
    21:00 +23°C° 1.7 mm 5 mps 751 mmHg 93%
    22:00 +23°C° 1.7 mm 5 mps 751 mmHg 93%
    23:00 +23°C° 2 mm 5 mps 751 mmHg 94%

    10 April, Friday

    Time Temperature Precipitation Wind Pressure Humidity
    00:00 +23°C° 2 mm 5 mps 751 mmHg 94%
    01:00 +23°C° 2 mm 5 mps 751 mmHg 94%
    02:00 +23°C° 1.8 mm 5 mps 751 mmHg 94%
    03:00 +23°C° 1.8 mm 5 mps 750 mmHg 94%
    04:00 +23°C° 1.8 mm 5 mps 750 mmHg 94%
    05:00 +23°C° 1.4 mm 5 mps 751 mmHg 94%
    06:00 +23°C° 1.4 mm 5 mps 751 mmHg 94%
    07:00 +23°C° 1.4 mm 4 mps 751 mmHg 94%
    08:00 +25°C° 1.1 mm 4 mps 752 mmHg 93%
    09:00 +25°C° 1.1 mm 4 mps 752 mmHg 92%
    10:00 +26°C° 1.1 mm 4 mps 752 mmHg 91%
    11:00 +26°C° 0.9 mm 4 mps 752 mmHg 89%
    12:00 +27°C° 0.9 mm 4 mps 751 mmHg 87%
    13:00 +27°C° 0.9 mm 5 mps 751 mmHg 85%
    14:00 +27°C° 0.3 mm 4 mps 750 mmHg 84%
    15:00 +27°C° 0.3 mm 4 mps 750 mmHg 83%
    16:00 +27°C° 0.3 mm 4 mps 749 mmHg 82%
    17:00 +26°C° 0.3 mm 3 mps 750 mmHg 86%
    18:00 +25°C° 0.3 mm 3 mps 750 mmHg 90%
    19:00 +24°C° 0.3 mm 3 mps 751 mmHg 93%
    20:00 +24°C° 0.6 mm 3 mps 751 mmHg 93%
    21:00 +24°C° 0.6 mm 3 mps 751 mmHg 94%
    22:00 +23°C° 0.6 mm 4 mps 751 mmHg 94%
    23:00 +24°C° 0.6 mm 3 mps 751 mmHg 94%
    Show more